Vertical_Velocity
11 -2 -2 1 1 1 1 0 0 -0 -1 0 3 2 2 0 -1 2 -5 3 1 0 0 1 0 -1 -1 -0 -1 0 0 -1 -1 -0 -1 -1 -1 -1 -1 -1 -1 1 0
18 13 10 -5 -1 2 3 -0 -0 2 0 -1 -1 1 1 3 1 0 2 1 -0 -0 0 0 0 -0 -0 1 1 0 1 1 0 -0 -0 -2 -1 -1 -0 -0 -0 -1 0
-40 40 16 -18 -9 -5 -4 4 2 0 2 3 1 -0 1 1 3 -0 1 1 1 1 -0 -1 -1 0 -1 -1 -0 1 0 0 -1 0 1 1 0 -1 -0 0 0 -0 -1
14 29 41 4 2 -0 -4 1 -4 -0 0 2 1 -0 2 0 1 2 1 1 1 1 2 1 -0 -1 -0 -2 -1 -1 -1 1 0 -1 -1 -1 0 0 0 0 -1 -0 -0
-13 16 -2 -12 5 -2 9 -2 7 -3 -2 3 2 -1 0 1 1 1 2 1 1 1 2 0 -1 -1 -1 -0 -0 1 -0 -2 1 1 -0 -0 0 -2 -1 1 0 -1 -1
-4 -3 -2 8 3 -2 6 -8 6 -4 -2 0 5 3 -2 1 -0 1 2 2 2 2 1 -0 -1 1 -1 -2 0 -0 1 1 -0 -0 -0 -1 0 -1 -1 -1 -0 -1 -2
1 -3 -2 -7 6 1 7 13 -0 1 2 -2 7 3 1 -1 -1 -0 1 2 2 1 1 1 1 1 2 1 -0 -0 1 -0 0 -1 0 -1 1 -1 0 1 -2 -1 -0
1 -0 -0 -1 1 -4 7 1 -5 -1 3 0 1 6 -1 -1 -0 0 -0 2 2 0 0 2 2 1 2 1 -1 -1 0 -1 0 -2 -1 -0 -2 -2 -1 1 -1 -1 -2
3 4 5 0 -3 1 10 7 -6 -12 0 -3 6 4 -3 -1 3 0 2 1 0 2 1 2 1 1 1 1 2 -0 0 -2 -0 -0 -1 -0 -2 -2 -1 -3 0 0 -1
3 6 5 5 0 4 -8 -9 -20 -14 -8 9 -4 2 2 -2 -2 -0 2 3 2 1 1 2 2 2 -0 0 1 0 1 -2 -0 -3 -0 1 -2 -1 -1 -2 -1 -2 -2
0 2 -3 -3 3 -3 1 1 -2 1 -0 -2 2 2 -0 -3 1 2 -0 6 1 3 -1 1 1 3 2 1 1 -0 3 0 -0 -1 -2 -1 -2 -2 -2 -1 -2 -0 -1
-1 -0 2 2 1 3 -1 -4 0 5 0 -8 -6 0 4 -8 -1 3 4 3 2 0 0 2 -0 2 -1 -1 2 2 -2 1 -3 -1 -2 -2 -0 -2 -2 -2 -1 -1 -4
-3 -1 1 -3 10 2 1 0 -1 3 7 3 3 -5 1 -6 0 -2 6 4 2 -1 0 4 -1 -2 5 -2 2 0 -2 1 -2 -0 -1 -0 -1 -1 -3 -1 -2 -2 -1
2 2 -0 -8 -4 3 6 15 3 1 -5 3 5 -4 -1 -6 2 1 1 6 -2 1 5 1 3 -2 2 -2 5 -2 0 -0 -1 1 -1 2 -2 0 -2 -3 -1 -3 -0
3 -1 1 2 -5 3 -4 -1 8 2 -5 8 3 2 -10 -1 -2 4 6 -2 3 3 5 1 -4 -1 -3 3 -1 -2 1 3 1 -3 1 0 -1 -2 0 -3 -0 -3 -2
-3 -1 -2 8 -0 -2 -4 1 6 1 -3 7 5 9 -16 -3 5 7 5 -5 4 3 2 -1 -0 -1 -3 2 -1 2 -3 -1 1 -0 1 -1 -4 -4 1 -1 1 -3 -1
-0 1 1 7 -2 4 3 8 1 7 -1 2 19 5 -16 7 -1 10 -10 2 1 3 -2 -3 2 1 -2 1 -2 -1 -3 -1 -3 -1 -0 -4 -2 -3 0 -2 -3 -5 -4
0 12 -5 -6 6 3 6 -3 -1 0 1 4 28 -4 -4 -6 14 -6 1 5 1 2 0 -2 -2 1 -2 4 0 -3 -3 -3 1 -1 -3 -2 -6 -3 -1 -3 -4 -4 -3
-1 -0 8 -7 -0 -2 4 -8 5 6 8 2 11 -8 2 8 -0 4 -4 6 -1 -1 3 -1 4 -2 2 4 -5 -5 -3 -2 -1 -4 -2 -4 -6 -5 -2 -3 -2 -2 -1
1 12 14 12 3 6 -5 7 1 5 -10 13 8 -11 14 2 1 9 4 -0 2 2 -2 -1 1 5 -4 -4 0 1 3 -0 1 -8 -1 2 -3 -2 -3 -7 -3 -2 -2
13 2 6 13 8 -7 -3 -8 7 6 -3 10 -0 7 9 8 5 2 2 -1 -1 -1 0 4 -5 1 -2 -0 -1 -1 2 -2 -4 -2 3 -7 6 -1 -5 -3 -5 -3 -5
-10 0 5 6 -3 -10 -6 -10 -5 -4 7 6 7 11 6 3 0 1 4 -0 -2 -2 0 -1 2 -3 -1 -0 -3 -1 -2 -1 14 -6 7 7 -5 2 -3 -2 -2 -1 -3
-1 2 7 4 6 -10 9 -1 -3 5 12 14 9 1 5 2 1 1 2 -3 2 2 -1 2 -2 -2 -4 -5 3 -1 -1 2 -3 -6 -9 15 -3 2 -2 -7 -6 -3 -2
8 3 1 -5 7 4 -2 1 2 6 10 6 1 4 4 2 -4 6 -2 -1 -1 -6 -0 -3 -6 -5 -5 -5 -2 -1 -5 1 1 -8 -14 -3 -3 4 6 -3 -2 -1 -4
5 1 -3 4 8 1 5 -4 3 1 4 2 2 3 -4 1 4 -5 -1 -2 -3 -2 -0 -7 -1 -6 -6 -1 -5 -1 -6 -6 1 9 0 -3 -2 -3 1 11 0 -3 -4
6 -2 -2 1 6 -8 -4 3 3 6 -3 2 2 5 -3 -1 -3 -2 2 0 0 -4 -3 -0 -11 -5 0 -7 -5 -4 -4 -3 -7 6 -2 -9 -6 -9 -10 5 22 2 -0
Height
3112 3117 3119 3122 3125 3127 3128 3128 3130 3132 3135 3135 3138 3138 3140 3143 3144 3146 3145 3148 3148 3149 3149 3150 3150 3150 3151 3151 3151 3150 3150 3149 3149 3148 3148 3148 3148 3147 3146 3145 3144 3143 3142
3105 3114 3110 3114 3119 3122 3123 3124 3127 3128 3130 3132 3133 3136 3136 3139 3142 3143 3144 3144 3145 3146 3147 3147 3148 3148 3149 3149 3149 3149 3148 3148 3148 3147 3146 3144 3143 3143 3142 3142 3141 3140 3139
3097 3087 3104 3104 3109 3113 3116 3119 3122 3125 3126 3128 3129 3132 3134 3135 3138 3140 3142 3142 3143 3144 3144 3145 3146 3146 3146 3146 3146 3145 3145 3145 3146 3145 3145 3144 3143 3140 3138 3138 3137 3136 3135
3087 3090 3080 3094 3101 3104 3111 3115 3116 3120 3123 3124 3125 3127 3130 3132 3134 3136 3138 3139 3140 3141 3142 3142 3142 3142 3143 3142 3143 3142 3142 3141 3141 3141 3140 3140 3139 3138 3137 3134 3133 3132 3131
3082 3083 3087 3087 3096 3100 3103 3108 3110 3114 3117 3120 3121 3123 3125 3127 3130 3132 3133 3135 3136 3137 3138 3138 3138 3139 3139 3139 3139 3139 3138 3139 3138 3138 3136 3135 3135 3134 3133 3131 3129 3127 3125
3075 3079 3083 3084 3090 3096 3097 3100 3104 3107 3111 3115 3117 3118 3121 3122 3125 3128 3130 3131 3132 3133 3134 3134 3134 3135 3135 3135 3135 3136 3135 3135 3134 3134 3133 3131 3130 3129 3127 3126 3125 3122 3120
3067 3072 3075 3080 3082 3089 3090 3093 3094 3099 3105 3110 3113 3114 3115 3118 3120 3123 3126 3127 3128 3129 3130 3130 3130 3131 3132 3131 3132 3132 3131 3131 3130 3129 3128 3126 3124 3123 3121 3120 3118 3116 3113
3059 3065 3070 3074 3077 3079 3083 3085 3088 3093 3099 3104 3108 3109 3109 3114 3117 3119 3122 3123 3124 3125 3126 3126 3127 3127 3127 3128 3128 3127 3127 3126 3125 3123 3122 3120 3118 3117 3115 3113 3110 3108 3106
3051 3056 3060 3065 3068 3073 3077 3082 3085 3087 3093 3098 3100 3103 3105 3109 3113 3116 3117 3119 3120 3121 3122 3123 3124 3124 3124 3124 3124 3123 3123 3121 3120 3118 3116 3114 3112 3111 3108 3105 3102 3100 3097
3044 3049 3053 3057 3062 3067 3070 3072 3077 3083 3088 3091 3095 3097 3100 3105 3108 3113 3114 3115 3117 3117 3117 3119 3120 3120 3121 3119 3120 3118 3118 3116 3115 3113 3110 3108 3105 3103 3101 3098 3096 3093 3089
3035 3039 3044 3049 3054 3061 3064 3069 3075 3080 3086 3084 3086 3092 3094 3100 3105 3108 3111 3112 3112 3114 3114 3115 3116 3116 3117 3116 3115 3114 3114 3111 3109 3107 3105 3101 3098 3096 3093 3090 3086 3083 3079
3029 3032 3037 3043 3047 3053 3057 3065 3068 3071 3080 3082 3082 3083 3088 3095 3101 3104 3107 3107 3107 3109 3109 3112 3112 3112 3114 3112 3110 3108 3108 3106 3103 3100 3097 3093 3090 3087 3084 3081 3077 3073 3069
3023 3026 3031 3036 3043 3048 3053 3056 3060 3064 3073 3080 3081 3079 3083 3090 3096 3099 3101 3102 3103 3104 3106 3106 3108 3109 3108 3107 3106 3103 3101 3099 3096 3093 3089 3085 3082 3079 3075 3071 3067 3063 3057
3017 3021 3026 3031 3038 3043 3047 3050 3055 3058 3063 3072 3079 3078 3080 3087 3092 3095 3098 3098 3100 3100 3100 3102 3103 3103 3104 3101 3099 3097 3095 3092 3089 3086 3082 3078 3074 3070 3066 3062 3057 3051 3046
3009 3014 3020 3026 3033 3038 3043 3046 3049 3054 3059 3065 3072 3075 3079 3084 3089 3091 3092 3095 3094 3096 3096 3098 3097 3098 3097 3095 3094 3091 3087 3084 3082 3078 3074 3070 3065 3061 3057 3052 3046 3041 3035
3001 3008 3013 3021 3026 3032 3036 3041 3045 3050 3056 3061 3066 3071 3076 3083 3085 3086 3089 3090 3090 3092 3093 3092 3094 3092 3092 3089 3088 3083 3080 3078 3075 3070 3065 3061 3057 3052 3046 3041 3035 3030 3024
2997 3003 3009 3015 3021 3027 3031 3034 3037 3045 3052 3059 3063 3067 3073 3080 3082 3082 3084 3085 3085 3089 3086 3087 3087 3086 3085 3084 3080 3076 3075 3070 3066 3062 3056 3052 3047 3041 3035 3030 3024 3019 3015
2992 3000 3005 3012 3016 3021 3026 3030 3038 3045 3053 3057 3060 3066 3072 3077 3078 3079 3080 3081 3083 3082 3084 3083 3083 3081 3081 3078 3074 3071 3066 3062 3058 3052 3048 3043 3036 3031 3025 3019 3013 3009 3005
2989 2996 3001 3008 3013 3018 3023 3029 3037 3045 3050 3054 3057 3065 3070 3074 3074 3074 3077 3079 3080 3081 3080 3079 3078 3078 3074 3070 3068 3064 3058 3053 3049 3044 3038 3033 3026 3021 3016 3011 3006 3002 2996
2987 2992 2999 3004 3008 3014 3019 3028 3035 3043 3048 3052 3057 3064 3068 3067 3070 3072 3075 3077 3077 3077 3077 3075 3074 3070 3067 3064 3060 3055 3052 3046 3042 3035 3029 3024 3016 3011 3007 3002 2997 2992 2986
2984 2992 2999 3002 3005 3013 3021 3031 3037 3042 3048 3053 3056 3061 3063 3064 3069 3071 3072 3072 3073 3072 3072 3071 3067 3064 3060 3055 3049 3045 3042 3039 3034 3027 3022 3016 3011 3005 2999 2993 2988 2983 2978
2985 2992 2997 3002 3006 3013 3022 3034 3039 3043 3047 3051 3054 3059 3061 3064 3066 3067 3069 3067 3068 3070 3066 3064 3061 3056 3050 3046 3042 3037 3031 3025 3024 3018 3009 3009 3001 2997 2991 2984 2980 2974 2968
2985 2990 2995 3000 3008 3016 3025 3030 3035 3040 3046 3051 3054 3057 3058 3061 3063 3063 3064 3066 3064 3063 3062 3058 3052 3048 3043 3038 3034 3028 3022 3016 3010 3004 2996 2994 2989 2985 2980 2975 2971 2965 2960
2983 2989 2994 3002 3009 3018 3025 3031 3036 3040 3044 3048 3052 3055 3057 3058 3058 3061 3061 3060 3060 3057 3053 3049 3045 3040 3035 3029 3022 3016 3010 3006 3002 2997 2987 2981 2979 2976 2972 2966 2962 2958 2951
2984 2990 2997 3005 3013 3020 3027 3031 3036 3040 3044 3048 3052 3053 3054 3056 3057 3057 3058 3057 3053 3049 3046 3041 3037 3032 3025 3017 3011 3006 3001 2996 2990 2988 2982 2973 2971 2965 2962 2959 2954 2949 2943
2987 2995 3001 3010 3018 3023 3028 3032 3035 3039 3043 3047 3049 3051 3053 3054 3055 3056 3053 3049 3045 3043 3040 3035 3030 3022 3016 3011 3004 2997 2990 2985 2981 2976 2971 2964 2959 2954 2950 2948 2945 2940 2934